AB1AU Weather Reports


time (UTC)temp
C
wind
direction
speed
KPH
gust
KPH
rain 1hr
cm
rain 24hr
cm
rain mn
cm
humidity
%
barometer
mb
20260507105415 8 268 0.0 0.0 0.00 0.28 0.28 95 1007.1
20260507104912 8 272 0.0 0.0 0.00 0.28 0.28 95 1007.1
20260507104408 8 272 0.0 0.0 0.00 0.28 0.28 95 1007.2
20260507103904 8 273 0.0 0.0 0.00 0.28 0.28 95 1007.1
20260507103401 8 261 0.0 0.0 0.00 0.28 0.28 95 1007.2
20260507102857 8 262 0.0 0.0 0.00 0.28 0.28 95 1007.5
20260507102354 7 264 0.0 0.0 0.00 0.28 0.28 95 1007.3
20260507101850 7 281 0.0 0.0 0.00 0.28 0.28 95 1006.9
20260507101350 7 281 0.0 0.0 0.00 0.28 0.28 95 1006.7
20260507100848 7 291 0.0 0.0 0.00 0.28 0.28 95 1006.8
20260507100346 7 281 0.0 0.0 0.00 0.28 0.28 95 1006.7
20260507095844 7 282 0.0 0.0 0.00 0.28 0.28 95 1006.5
20260507095340 7 282 0.0 0.0 0.00 0.28 0.28 95 1006.7
20260507094837 7 283 0.0 0.0 0.00 0.28 0.28 95 1006.7
20260507094333 7 291 0.0 0.0 0.00 0.28 0.28 95 1006.5
20260507093831 7 270 0.0 0.0 0.00 0.28 0.28 95 1006.9
20260507093329 7 270 0.0 0.0 0.00 0.28 0.28 95 1006.7
20260507092826 7 272 0.0 0.0 0.00 0.28 0.28 95 1006.6
20260507092323 7 273 0.0 0.0 0.00 0.28 0.28 95 1006.7
20260507091819 7 274 0.0 0.0 0.00 0.28 0.28 95 1006.5
20260507091316 7 265 0.0 0.0 0.00 0.28 0.28 95 1006.8
20260507090817 7 264 0.0 0.0 0.00 0.28 0.28 95 1007.1
20260507090314 7 266 0.0 0.0 0.00 0.28 0.28 95 1006.7
20260507085811 7 265 0.0 0.0 0.00 0.28 0.28 95 1007.0
20260507085308 7 248 0.0 0.0 0.00 0.28 0.28 95 1006.9
20260507084805 7 280 0.0 0.0 0.00 0.28 0.28 95 1006.5
20260507084301 7 269 0.0 0.0 0.00 0.28 0.28 95 1006.2
20260507083759 7 293 0.0 0.0 0.00 0.28 0.28 95 1006.3
20260507083255 7 293 0.0 1.6 0.00 0.28 0.28 95 1006.1
20260507082752 7 275 0.0 0.0 0.00 0.28 0.28 95 1006.4
20260507082247 8 290 0.0 0.0 0.00 0.28 0.28 95 1006.4
20260507081744 8 288 0.0 1.6 0.00 0.28 0.28 95 1006.5
20260507081240 8 310 0.0 0.0 0.00 0.28 0.28 95 1006.5
20260507080737 8 287 0.0 1.6 0.00 0.28 0.28 95 1006.4
20260507080233 8 294 0.0 0.0 0.00 0.28 0.28 95 1006.5
20260507075729 8 294 0.0 0.0 0.00 0.28 0.28 95 1006.3
20260507075225 8 300 0.0 0.0 0.00 0.28 0.28 95 1006.7
20260507074722 8 270 0.0 0.0 0.00 0.28 0.28 95 1006.9
20260507074220 8 270 0.0 0.0 0.00 0.28 0.28 95 1007.0
20260507073716 8 271 0.0 0.0 0.00 0.28 0.28 95 1006.6
20260507073213 8 294 0.0 0.0 0.00 0.28 0.28 95 1006.2
20260507072711 8 297 0.0 0.0 0.00 0.28 0.28 95 1006.4
20260507072207 8 270 0.0 0.0 0.00 0.28 0.28 95 1006.6
20260507071705 8 295 0.0 0.0 0.00 0.28 0.28 95 1006.2
20260507071201 8 295 0.0 0.0 0.00 0.28 0.28 95 1006.2
20260507070659 8 294 0.0 0.0 0.00 0.28 0.28 95 1006.1
20260507070155 8 294 0.0 0.0 0.00 0.28 0.28 95 1006.2
20260507065652 8 293 0.0 0.0 0.00 0.28 0.28 95 1006.0
20260507065149 8 293 0.0 0.0 0.00 0.28 0.28 95 1005.8
20260507064646 8 299 0.0 0.0 0.00 0.28 0.28 95 1005.7
20260507064144 8 290 0.0 0.0 0.00 0.28 0.28 95 1006.0
20260507063642 8 292 0.0 0.0 0.00 0.28 0.28 95 1005.7
20260507063139 8 292 0.0 0.0 0.00 0.28 0.28 95 1005.8
20260507062636 8 298 0.0 0.0 0.00 0.28 0.28 95 1005.9
20260507062133 8 297 0.0 1.6 0.00 0.28 0.28 95 1005.7
20260507061631 9 262 0.0 0.0 0.00 0.28 0.28 95 1005.9
20260507061129 9 289 0.0 0.0 0.00 0.28 0.28 95 1005.7
20260507060627 9 294 0.0 1.6 0.00 0.28 0.28 95 1005.6
20260507060122 9 289 0.0 0.0 0.18 0.28 0.28 95 1005.6
20260507055618 9 294 0.0 1.6 0.00 0.25 0.25 95 1005.4
20260507055114 9 298 0.0 0.0 0.00 0.25 0.25 95 1005.5
20260507054610 9 290 0.0 0.0 0.00 0.25 0.25 95 1005.8
20260507054108 9 290 0.0 1.6 0.00 0.25 0.25 95 1005.8
20260507053605 9 0 0.0 1.6 0.00 0.25 0.25 95 1005.9
20260507053104 9 271 0.0 1.6 0.13 0.25 0.25 95 1005.6
20260507052601 9 303 0.0 3.2 0.13 0.25 0.25 95 1005.7
20260507052058 9 307 0.0 0.0 0.00 0.23 0.23 95 1005.9
20260507051555 9 272 0.0 1.6 0.00 0.23 0.23 95 1006.1
20260507051052 9 279 0.0 1.6 0.18 0.23 0.23 95 1006.3
20260507050549 9 287 0.0 3.2 0.36 0.23 0.23 95 1005.8
20260507050044 10 327 1.6 3.2 0.30 0.20 0.20 95 1006.1
20260507045542 10 341 4.8 6.4 0.30 0.18 0.18 95 1006.0
20260507045039 10 294 1.6 6.4 0.18 0.15 0.15 95 1005.9
20260507044536 10 296 0.0 3.2 0.00 0.13 0.13 95 1005.9
20260507044033 10 289 3.2 4.8 0.00 0.13 0.13 95 1005.7
20260507043528 10 284 1.6 3.2 0.13 0.13 0.13 95 1005.9
20260507043026 10 287 0.0 3.2 0.13 0.13 0.13 95 1005.7
20260507042521 10 24 1.6 4.8 0.30 0.10 0.10 95 1005.7
20260507042018 10 356 0.0 4.8 0.48 0.10 0.10 95 1005.6
20260507041515 10 15 4.8 4.8 0.30 0.05 0.05 95 1005.8
20260507041012 10 293 3.2 3.2 0.13 0.03 0.03 95 1005.9
20260507040508 10 289 1.6 3.2 0.00 0.00 0.00 95 1005.6
20260507040004 10 340 3.2 4.8 0.18 1.17 1.17 95 1005.6
20260507035500 11 282 0.0 4.8 0.18 1.17 1.17 95 1005.7
20260507034956 11 276 1.6 4.8 0.13 1.14 1.14 95 1005.6
20260507034453 11 317 3.2 3.2 0.13 1.14 1.14 95 1005.4
20260507033951 11 296 3.2 4.8 0.18 1.12 1.12 94 1005.6
20260507033449 12 293 3.2 3.2 0.18 1.12 1.12 95 1005.1
20260507032946 12 275 0.0 0.0 0.18 1.09 1.09 95 1004.9
20260507032443 12 271 0.0 0.0 0.00 1.07 1.07 95 1004.7
20260507031939 12 271 0.0 0.0 0.00 1.07 1.07 95 1004.4
20260507031435 12 272 0.0 3.2 0.00 1.07 1.07 95 1004.7
20260507030932 12 251 0.0 1.6 0.13 1.07 1.07 95 1004.5
20260507030429 12 244 0.0 4.8 0.13 1.07 1.07 95 1004.6
20260507025926 12 247 0.0 3.2 0.18 1.04 1.04 95 1004.7
20260507025424 12 255 0.0 6.4 0.18 1.04 1.04 95 1004.5
20260507024921 12 146 3.2 6.4 0.00 1.02 1.02 95 1004.5
20260507024419 12 236 1.6 3.2 0.00 1.02 1.02 95 1004.6
20260507023915 12 218 0.0 3.2 0.00 1.02 1.02 95 1004.5
20260507023411 12 212 1.6 11.3 0.00 1.02 1.02 94 1004.7
20260507022909 12 232 4.8 6.4 0.00 1.02 1.02 95 1004.7
20260507022405 12 232 4.8 11.3 0.13 1.02 1.02 95 1004.7
20260507021901 12 174 6.4 11.3 0.00 0.99 0.99 95 1004.6
20260507021356 12 249 1.6 4.8 0.18 0.99 0.99 95 1004.6
20260507020855 12 192 4.8 6.4 0.00 0.97 0.97 95 1004.5
20260507020351 13 237 3.2 4.8 0.13 0.97 0.97 95 1004.6
20260507015849 13 215 3.2 9.7 0.13 0.97 0.97 95 1004.4
20260507015347 13 103 6.4 9.7 0.00 0.94 0.94 95 1004.6
20260507014843 13 234 1.6 9.7 0.00 0.94 0.94 95 1004.6
20260507014339 13 187 4.8 9.7 0.00 0.94 0.94 95 1004.6
20260507013836 13 210 4.8 9.7 0.00 0.94 0.94 95 1004.6
20260507013333 13 154 6.4 9.7 0.00 0.94 0.94 95 1004.8
20260507012831 13 160 6.4 14.5 0.00 0.94 0.94 95 1005.0
20260507012326 13 268 0.0 3.2 0.00 0.94 0.94 95 1005.1
20260507011824 13 246 6.4 11.3 0.00 0.94 0.94 95 1005.1
20260507011321 13 248 3.2 12.9 0.00 0.94 0.94 95 1005.2
20260507010820 13 250 0.0 6.4 0.00 0.94 0.94 95 1005.0
20260507010316 13 155 3.2 4.8 0.00 0.94 0.94 95 1005.2
20260507005813 13 167 1.6 3.2 0.00 0.94 0.94 95 1005.3
20260507005310 13 245 1.6 6.4 0.00 0.94 0.94 95 1005.4
20260507004807 13 187 1.6 9.7 0.00 0.94 0.94 95 1005.7
20260507004304 13 144 3.2 6.4 0.00 0.94 0.94 95 1005.4
20260507003800 13 167 1.6 6.4 0.00 0.94 0.94 94 1005.5
20260507003255 13 161 3.2 4.8 0.00 0.94 0.94 94 1005.6
20260507002751 13 134 6.4 6.4 0.00 0.94 0.94 94 1005.4
20260507002247 13 162 1.6 3.2 0.00 0.94 0.94 94 1005.6
20260507001745 13 229 3.2 9.7 0.18 0.94 0.94 94 1005.4
20260507001242 13 196 0.0 6.4 0.18 0.94 0.94 94 1005.5
20260507000738 13 272 0.0 4.8 0.00 0.91 0.91 94 1005.5
20260507000234 13 249 0.0 1.6 0.00 0.91 0.91 94 1005.6
20260506235731 13 253 0.0 1.6 0.00 0.91 0.91 94 1005.8
20260506235226 13 251 1.6 6.4 0.00 0.91 0.91 94 1005.7
20260506234723 13 245 6.4 9.7 0.00 0.91 0.91 94 1006.0
20260506234221 13 244 3.2 16.1 0.00 0.91 0.91 94 1005.7
20260506233718 13 243 6.4 17.7 0.00 0.91 0.91 94 1005.8
20260506233214 12 193 3.2 4.8 0.00 0.91 0.91 94 1005.9
20260506232711 12 194 6.4 9.7 0.00 0.91 0.91 94 1005.9
20260506232206 12 149 6.4 11.3 0.00 0.91 0.91 94 1005.7
20260506231703 12 151 3.2 6.4 0.00 0.91 0.91 94 1005.9
20260506231202 12 267 1.6 6.4 0.00 0.91 0.91 94 1005.8
20260506230658 12 223 3.2 4.8 0.00 0.91 0.91 94 1006.0
20260506230155 12 178 1.6 3.2 0.00 0.91 0.91 94 1006.0
20260506225651 12 226 4.8 9.7 0.00 0.91 0.91 93 1006.1
20260506225148 12 26 1.6 9.7 0.00 0.91 0.91 93 1006.3
20260506224645 12 256 0.0 12.9 0.00 0.91 0.91 93 1006.4
20260506224141 12 261 0.0 4.8 0.00 0.91 0.91 93 1006.1
20260506223638 12 245 3.2 4.8 0.13 0.91 0.91 93 1006.6
20260506223134 13 149 3.2 6.4 0.13 0.91 0.91 93 1006.5
20260506222631 13 230 3.2 6.4 0.18 0.89 0.89 93 1006.6
20260506222127 13 198 6.4 11.3 0.30 0.89 0.89 93 1006.3
20260506221625 13 136 3.2 6.4 0.30 0.86 0.86 93 1006.7
20260506221123 13 252 6.4 9.7 0.30 0.84 0.84 93 1006.7
20260506220619 13 272 0.0 4.8 0.30 0.81 0.81 93 1006.9
20260506220114 13 274 0.0 1.6 0.18 0.79 0.79 93 1006.8
20260506215612 13 248 3.2 6.4 0.30 0.76 0.76 93 1007.0
20260506215107 13 225 3.2 4.8 0.30 0.76 0.76 93 1006.8
20260506214604 13 142 4.8 6.4 0.00 0.71 0.71 93 1006.7
20260506214101 13 177 1.6 6.4 0.18 0.71 0.71 93 1006.8
20260506213559 13 307 0.0 3.2 0.18 0.71 0.71 93 1006.4
20260506213056 13 215 3.2 11.3 0.13 0.69 0.69 93 1006.6
20260506212553 13 220 1.6 4.8 0.13 0.69 0.69 93 1006.4
20260506212048 13 211 1.6 3.2 0.00 0.66 0.66 93 1006.7
20260506211544 13 149 3.2 11.3 0.18 0.66 0.66 93 1006.6
20260506211041 13 181 3.2 6.4 0.18 0.66 0.66 93 1006.5
20260506210538 13 170 4.8 12.9 0.13 0.64 0.64 92 1006.6
20260506210035 13 139 1.6 4.8 0.13 0.64 0.64 92 1006.7
20260506205532 13 144 4.8 9.7 0.00 0.61 0.61 92 1006.6
20260506205027 13 226 3.2 11.3 0.18 0.61 0.61 92 1006.5
20260506204525 13 240 3.2 9.7 0.18 0.61 0.61 92 1006.8
20260506204022 13 202 6.4 9.7 0.13 0.58 0.58 92 1007.0
20260506203520 13 244 4.8 6.4 0.13 0.58 0.58 92 1006.8
20260506203016 13 237 4.8 14.5 0.18 0.56 0.56 91 1006.9
20260506202514 13 254 0.0 4.8 0.18 0.56 0.56 92 1006.9
20260506202009 13 248 3.2 4.8 0.13 0.53 0.53 91 1006.8
20260506201508 13 157 3.2 11.3 0.18 0.51 0.51 91 1007.0
20260506201005 13 139 3.2 9.7 0.30 0.51 0.51 91 1007.0
20260506200501 13 230 3.2 12.9 0.13 0.48 0.48 91 1006.8
20260506195957 13 130 3.2 14.5 0.18 0.46 0.46 91 1007.2
20260506195455 13 138 6.4 12.9 0.36 0.46 0.46 91 1007.2
20260506194950 13 154 4.8 6.4 0.18 0.43 0.43 91 1007.3
20260506194448 13 238 1.6 3.2 0.13 0.41 0.41 91 1007.3
20260506193944 13 239 0.0 3.2 0.18 0.38 0.38 90 1007.4
20260506193442 13 221 0.0 3.2 0.79 0.38 0.38 90 1007.4
20260506192938 14 28 1.6 6.4 0.71 0.36 0.36 89 1007.2
20260506192435 14 194 1.6 4.8 0.30 0.25 0.25 89 1007.6
20260506191932 14 205 4.8 4.8 0.30 0.23 0.23 88 1007.5
20260506191428 14 230 1.6 3.2 0.30 0.20 0.20 88 1007.3
20260506190925 15 169 4.8 4.8 0.18 0.18 0.18 88 1007.1
20260506190422 15 220 3.2 4.8 0.13 0.15 0.15 87 1007.3
20260506185919 15 9 0.0 0.0 0.30 0.15 0.15 87 1007.1
20260506185416 15 233 0.0 1.6 0.36 0.13 0.13 86 1007.4
20260506184913 15 224 1.6 3.2 0.30 0.10 0.10 85 1007.3
20260506184410 15 243 0.0 1.6 0.30 0.08 0.08 84 1007.2
20260506183907 15 246 1.6 4.8 0.30 0.05 0.05 82 1007.3
20260506183402 16 238 1.6 4.8 0.13 0.03 0.03 80 1007.2
20260506182900 16 245 0.0 1.6 0.00 0.00 0.00 78 1007.1
20260506182357 16 226 1.6 11.3 0.00 0.00 0.00 77 1007.3
20260506181854 16 215 6.4 9.7 0.00 0.00 0.00 77 1007.3
20260506181352 16 181 0.0 4.8 0.00 0.00 0.00 78 1007.3
20260506180849 16 180 3.2 3.2 0.00 0.00 0.00 78 1007.5
20260506180345 16 247 0.0 3.2 0.00 0.00 0.00 78 1007.6
20260506175841 16 145 3.2 4.8 0.00 0.00 0.00 77 1007.6
20260506175338 16 204 1.6 9.7 0.00 0.00 0.00 77 1007.7
20260506174835 16 171 1.6 4.8 0.00 0.00 0.00 77 1007.5
20260506174333 16 191 1.6 9.7 0.00 0.00 0.00 76 1007.6
20260506173830 17 139 6.4 12.9 0.00 0.00 0.00 74 1007.9
20260506173327 17 191 1.6 3.2 0.00 0.00 0.00 73 1008.0
20260506172824 17 199 4.8 9.7 0.00 0.00 0.00 72 1007.9
20260506172320 17 250 1.6 3.2 0.00 0.00 0.00 73 1008.0
20260506171818 17 229 1.6 6.4 0.00 0.00 0.00 73 1008.2
20260506171315 17 159 8.0 9.7 0.00 0.00 0.00 73 1008.2
20260506170813 17 219 4.8 6.4 0.00 0.00 0.00 73 1008.4
20260506170308 17 120 1.6 3.2 0.00 0.00 0.00 74 1008.6
20260506165808 17 159 4.8 6.4 0.00 0.00 0.00 73 1008.7
20260506165305 17 226 8.0 12.9 0.00 0.00 0.00 73 1008.8
20260506164801 17 182 4.8 6.4 0.00 0.00 0.00 73 1008.6
20260506164258 17 200 3.2 9.7 0.00 0.00 0.00 72 1008.8
20260506163755 17 133 1.6 4.8 0.00 0.00 0.00 72 1008.7
20260506163250 17 249 4.8 4.8 0.00 0.00 0.00 71 1009.1
20260506162746 17 231 0.0 4.8 0.00 0.00 0.00 72 1009.2
20260506162244 17 247 0.0 3.2 0.00 0.00 0.00 71 1009.1
20260506161741 17 241 0.0 6.4 0.00 0.00 0.00 71 1009.1
20260506161238 17 208 1.6 6.4 0.00 0.00 0.00 71 1009.2
20260506160730 17 156 6.4 9.7 0.00 0.00 0.00 71 1009.3
20260506160227 17 151 6.4 11.3 0.00 0.00 0.00 71 1009.3
20260506155725 17 186 3.2 4.8 0.00 0.00 0.00 71 1009.4
20260506155222 17 147 3.2 6.4 0.00 0.00 0.00 71 1009.3
20260506153329 17 10 3.2 9.7 0.00 0.00 0.00 71 1009.4
20260506152826 17 232 3.2 6.4 0.00 0.00 0.00 71 1009.4
20260506152323 17 199 1.6 3.2 0.00 0.00 0.00 72 1009.3
20260506151822 16 220 3.2 4.8 0.00 0.00 0.00 72 1009.4
20260506151318 17 165 3.2 9.7 0.00 0.00 0.00 72 1009.4
20260506150815 17 99 3.2 6.4 0.00 0.00 0.00 72 1009.3
20260506150312 17 254 1.6 6.4 0.00 0.00 0.00 72 1009.1
20260506145809 17 185 3.2 4.8 0.00 0.00 0.00 72 1009.0
20260506145306 17 200 3.2 6.4 0.00 0.00 0.00 72 1009.0
20260506144803 16 246 0.0 4.8 0.00 0.00 0.00 72 1009.2
20260506144259 16 194 3.2 9.7 0.00 0.00 0.00 72 1009.3
20260506143757 16 242 0.0 0.0 0.00 0.00 0.00 72 1009.3
20260506143254 16 247 1.6 4.8 0.00 0.00 0.00 72 1009.6
20260506142753 16 166 3.2 4.8 0.00 0.00 0.00 73 1009.7
20260506142250 16 228 1.6 3.2 0.00 0.00 0.00 73 1009.8
20260506141748 16 219 0.0 4.8 0.00 0.00 0.00 73 1009.7
20260506141246 16 211 3.2 3.2 0.00 0.00 0.00 73 1009.6
20260506140744 16 249 0.0 4.8 0.00 0.00 0.00 73 1009.7
20260506140241 16 230 1.6 3.2 0.00 0.00 0.00 73 1009.8
20260506135737 16 170 3.2 9.7 0.00 0.00 0.00 73 1010.1
20260506135233 15 175 1.6 3.2 0.00 0.00 0.00 73 1009.9
20260506134731 15 243 1.6 3.2 0.00 0.00 0.00 72 1009.9
20260506134227 15 201 1.6 1.6 0.00 0.00 0.00 72 1009.7
20260506133725 15 256 0.0 3.2 0.00 0.00 0.00 73 1009.7
20260506133221 15 289 0.0 0.0 0.00 0.00 0.00 73 1009.8
20260506132718 15 245 1.6 1.6 0.00 0.00 0.00 73 1009.8
20260506132215 15 226 3.2 4.8 0.00 0.00 0.00 72 1009.8
20260506131713 15 140 3.2 4.8 0.00 0.00 0.00 72 1009.7
20260506131208 15 54 3.2 3.2 0.00 0.00 0.00 73 1009.7
20260506130705 15 276 0.0 3.2 0.00 0.00 0.00 73 1010.0
20260506130203 15 222 0.0 3.2 0.00 0.00 0.00 73 1009.9
20260506125701 15 241 0.0 4.8 0.00 0.00 0.00 73 1010.0
20260506125158 15 213 1.6 3.2 0.00 0.00 0.00 73 1010.0
20260506124656 15 277 3.2 4.8 0.00 0.00 0.00 73 1010.0
20260506124154 15 48 3.2 4.8 0.00 0.00 0.00 72 1010.3
20260506123651 15 249 0.0 3.2 0.00 0.00 0.00 73 1010.3
20260506123150 15 250 0.0 3.2 0.00 0.00 0.00 74 1010.5
20260506122646 14 245 0.0 1.6 0.00 0.00 0.00 75 1010.7
20260506122144 14 241 0.0 3.2 0.00 0.00 0.00 75 1010.7
20260506121641 14 54 1.6 3.2 0.00 0.00 0.00 75 1010.9
20260506121137 13 223 0.0 1.6 0.00 0.00 0.00 76 1010.5
20260506120635 13 249 4.8 4.8 0.00 0.00 0.00 75 1010.5
20260506120132 13 228 1.6 4.8 0.00 0.00 0.00 75 1010.6
20260506115631 13 185 1.6 4.8 0.00 0.00 0.00 75 1010.8
20260506115129 13 234 4.8 4.8 0.00 0.00 0.00 76 1010.7
20260506114626 13 256 1.6 4.8 0.00 0.00 0.00 76 1010.8
20260506114124 13 174 3.2 3.2 0.00 0.00 0.00 76 1010.8
20260506113622 13 178 3.2 3.2 0.00 0.00 0.00 77 1010.8
20260506113119 13 243 0.0 0.0 0.00 0.00 0.00 77 1010.8
20260506112615 13 254 0.0 0.0 0.00 0.00 0.00 78 1010.6
20260506112113 13 223 1.6 1.6 0.00 0.00 0.00 78 1010.7
20260506111610 13 245 0.0 1.6 0.00 0.00 0.00 78 1010.8
20260506111108 13 248 0.0 1.6 0.00 0.00 0.00 78 1010.8
20260506110605 13 251 0.0 0.0 0.00 0.00 0.00 78 1010.7
20260506105558 12 256 0.0 1.6 0.00 0.00 0.00 78 1010.6